Wind_Speed
6 6 5 6 5 6 6 4 2 1 0 1 1 2 3 3 3 3 3 3 3 4 4 5 6 6 6 7 6 6 5 5 5 5 4 5 5 3 3 3 3 2 2
6 5 6 6 6 7 7 5 2 1 0 1 1 0 1 2 2 2 2 2 3 3 3 4 5 6 6 7 7 6 5 5 5 5 4 4 4 3 2 2 2 2 2
6 6 6 7 7 7 7 5 3 2 1 1 1 0 1 2 2 2 2 2 3 2 3 4 4 5 6 7 7 6 6 5 5 4 4 4 3 3 3 2 2 2 2
6 6 6 7 7 7 6 5 4 3 2 3 2 3 3 2 2 2 2 2 2 3 3 3 4 5 7 7 6 7 6 6 6 4 3 3 2 3 2 2 3 3 3
6 6 7 7 6 6 6 5 4 4 4 3 3 3 4 3 2 2 1 2 2 2 3 3 4 5 6 6 6 7 6 6 5 4 3 3 2 2 2 3 3 3 3
6 6 7 7 6 6 6 5 4 5 5 4 4 3 3 3 2 1 1 1 3 3 3 4 4 5 5 5 6 7 7 6 5 4 2 2 2 2 3 3 3 3 3
6 6 7 6 6 6 6 5 4 5 4 5 5 4 4 3 2 1 1 1 2 2 4 5 4 4 5 5 6 5 6 6 5 3 2 1 2 2 2 2 2 1 1
7 6 6 6 6 6 6 6 5 5 5 4 4 4 4 4 2 1 0 1 2 3 3 4 3 4 5 6 6 6 5 5 3 3 2 2 2 1 1 1 1 1 2
8 6 6 6 6 6 6 6 5 4 5 5 4 5 5 6 4 2 1 2 2 3 4 5 5 5 5 6 6 5 4 4 2 2 2 2 1 1 1 2 2 2 2
9 8 7 6 6 6 5 5 4 4 4 5 5 5 6 7 6 5 4 3 4 3 4 5 5 4 4 5 5 4 3 3 2 2 1 2 1 1 2 2 2 2 2
10 9 8 7 6 5 5 5 5 4 4 4 5 5 6 7 7 6 5 4 4 5 5 5 4 4 4 4 4 4 3 3 3 2 1 1 1 1 1 1 1 2 2
10 10 9 8 8 7 5 5 5 4 5 4 5 5 5 6 7 7 6 5 5 5 5 5 4 4 4 3 4 4 3 3 3 2 0 1 2 2 1 1 2 3 3
10 10 10 9 8 8 7 6 5 5 5 5 4 4 4 5 6 6 5 5 5 5 5 4 4 4 4 4 3 3 2 2 2 2 1 2 2 2 2 2 2 3 4
10 10 10 10 9 9 8 7 6 5 5 5 4 4 5 5 5 6 4 4 4 4 4 3 3 4 4 4 3 3 3 3 2 1 1 1 2 2 2 2 3 4 4
9 9 10 10 10 9 8 7 6 5 5 6 5 4 5 5 5 5 4 4 3 3 3 3 2 3 3 2 2 2 2 3 2 1 1 1 2 2 3 3 4 5 4
9 9 10 10 10 9 9 8 7 6 6 6 6 6 6 6 5 6 5 4 3 3 2 2 2 2 2 2 1 1 1 2 2 2 2 2 3 3 3 4 4 4 5
9 9 9 9 9 9 9 8 7 7 6 6 7 7 6 7 6 5 5 5 5 4 4 4 3 3 3 2 2 1 1 2 3 4 4 4 4 4 3 3 4 5 5
9 9 8 8 9 9 9 8 8 7 7 7 7 7 6 6 6 5 6 6 6 5 4 4 3 4 4 3 3 3 2 3 3 3 4 4 5 6 6 5 6 7 7
9 9 9 9 9 9 9 8 8 8 7 7 7 7 7 6 6 5 5 5 5 5 5 4 4 3 3 3 3 3 3 3 3 3 4 5 6 6 6 6 7 8 9
9 9 9 9 9 9 9 8 8 8 8 8 8 8 7 6 6 5 5 5 5 5 5 5 4 3 3 3 3 3 3 3 3 4 5 5 6 7 8 8 9 9 10
8 9 9 9 9 9 9 9 9 10 9 8 9 9 8 8 7 6 5 6 6 5 5 5 5 5 4 4 4 4 4 5 5 5 6 6 7 8 9 10 10 10 10
9 9 9 9 10 10 8 8 9 9 9 9 9 9 9 9 9 8 7 7 6 6 6 6 6 6 5 5 5 6 6 6 6 7 7 7 8 9 9 9 11 11 11
9 9 9 9 10 9 9 9 9 8 9 9 9 9 9 9 9 8 8 7 7 7 7 7 7 7 7 7 7 7 7 7 8 8 8 9 9 10 10 11 12 12 12
10 9 10 10 10 9 9 9 9 9 9 9 10 10 10 10 10 10 9 9 8 8 8 9 9 9 9 9 9 9 9 9 10 9 10 11 11 11 11 12 13 13 13
10 10 11 10 10 10 10 10 10 10 10 10 10 10 10 11 11 11 11 11 10 9 10 11 11 11 11 11 11 11 11 12 12 12 11 12 12 13 13 13 14 14 14
11 11 11 11 11 11 11 11 12 12 12 12 11 11 12 12 12 12 12 12 11 11 12 12 13 13 13 14 14 14 13 13 13 13 14 14 14 14 14 15 15 15 16
Wind_Direction
17 9 9 11 8 5 1 356 352 330 141 173 179 214 222 215 222 230 232 211 201 194 195 206 211 220 222 217 213 208 201 199 198 199 211 217 223 221 217 235 244 241 246
10 6 10 8 8 8 6 3 1 358 121 172 135 248 178 192 205 204 206 197 194 193 203 203 213 213 208 206 203 199 186 188 192 199 204 211 214 219 216 232 232 240 251
7 8 20 14 16 10 9 19 22 32 98 110 85 65 126 144 154 150 174 183 185 194 204 207 209 198 196 200 205 191 187 190 200 205 198 195 214 209 220 234 231 233 253
12 15 23 19 18 14 18 35 45 59 90 93 86 100 100 113 132 145 170 182 193 200 198 193 184 184 183 191 189 183 183 183 190 197 188 181 200 207 219 238 230 233 252
17 21 26 29 29 24 29 41 51 60 71 86 90 88 91 97 109 123 164 197 195 196 189 163 155 166 173 180 182 188 188 184 188 191 191 195 196 209 222 238 246 245 247
20 25 30 35 39 35 34 37 47 53 61 80 85 83 78 67 77 90 139 200 191 188 186 167 159 161 169 177 181 187 196 197 193 184 187 175 187 207 221 247 258 257 244
25 30 36 38 39 39 37 40 46 52 60 73 72 74 59 35 23 22 112 165 174 163 181 174 168 167 167 169 175 184 188 192 186 182 189 200 212 224 240 274 261 272 268
28 32 35 40 36 37 39 45 51 50 59 65 58 50 38 19 360 348 342 165 158 158 170 171 171 180 177 178 178 179 185 190 190 184 185 203 226 263 317 332 300 270 312
27 29 38 44 40 35 41 46 51 55 52 51 47 44 37 29 29 46 81 88 125 149 161 155 154 157 160 164 170 179 183 184 184 191 199 211 275 316 353 349 335 303 296
29 34 37 41 33 26 34 40 50 52 49 51 48 47 41 43 46 59 79 61 66 109 130 144 155 153 142 150 161 175 187 184 177 176 198 215 280 317 351 342 335 355 306
33 34 37 37 29 25 31 42 44 47 50 49 46 47 47 49 50 55 65 54 58 90 121 118 121 128 140 143 165 185 188 184 182 171 205 206 279 334 341 349 356 343 324
35 33 35 35 31 32 37 42 44 44 42 46 44 46 45 46 47 47 56 57 69 90 104 109 119 118 120 131 156 167 171 179 176 159 51 21 16 13 353 354 15 2 348
34 31 31 36 37 39 41 38 42 41 40 40 41 36 37 37 38 39 41 49 62 77 85 99 104 103 104 100 114 119 117 102 111 98 78 50 39 26 32 14 359 352 345
29 29 27 30 33 34 35 34 34 32 32 28 25 25 24 19 22 26 30 40 61 85 85 93 96 86 88 89 96 99 95 78 89 102 110 72 35 18 17 16 6 348 340
25 25 23 24 28 33 32 28 24 21 23 22 13 5 9 8 13 19 16 13 41 67 69 75 68 78 68 60 74 79 82 72 53 41 57 24 9 357 346 355 355 349 347
17 18 19 20 22 25 22 19 19 15 13 17 17 13 11 9 14 14 18 21 30 24 24 41 47 43 53 30 39 55 59 32 13 8 7 0 354 341 324 336 341 344 347
12 12 9 12 14 15 14 14 14 14 16 16 13 13 14 16 15 18 16 17 21 18 17 18 24 20 26 19 20 44 20 15 23 14 5 357 348 340 330 330 330 327 329
8 7 5 4 6 7 11 11 11 11 8 7 6 5 6 11 13 16 23 23 26 21 24 21 32 34 35 29 24 13 2 0 1 358 349 341 336 334 330 328 324 326 325
6 4 2 1 360 359 360 2 4 5 2 2 1 0 359 0 0 13 27 26 28 20 16 21 25 23 20 22 19 12 0 358 350 343 333 327 329 330 328 322 322 323 324
2 1 1 358 355 355 354 353 356 0 1 1 359 356 356 354 351 352 1 9 12 12 17 19 16 10 7 2 355 347 336 339 339 333 332 330 331 329 329 329 326 325 323
354 354 356 353 351 351 352 351 353 353 353 357 358 358 357 352 348 350 353 357 359 1 6 5 3 6 356 343 333 327 323 326 326 321 321 321 321 322 327 323 322 324 323
344 345 345 347 350 348 348 346 348 350 352 350 349 350 350 350 348 347 348 348 350 350 351 348 347 345 339 330 323 316 314 313 308 310 313 313 311 315 318 318 319 320 319
337 336 336 337 338 338 339 342 345 350 349 348 346 346 347 348 346 341 335 334 334 335 335 333 332 328 325 324 317 313 308 304 302 301 303 305 305 306 307 310 313 314 316
331 328 327 330 330 329 333 334 336 338 340 341 340 340 341 340 338 333 330 323 317 318 320 318 318 316 312 309 307 304 302 304 303 301 301 301 303 305 306 306 309 312 311
324 323 323 322 322 322 323 325 325 325 326 328 330 332 332 332 332 329 325 317 309 308 310 311 309 306 305 302 300 299 298 299 299 302 302 299 300 302 301 303 305 306 305
317 319 317 316 315 315 316 316 318 318 316 319 321 323 323 322 322 323 323 317 312 312 310 308 306 303 301 300 299 297 296 298 300 298 298 296 297 298 299 301 303 302 304
Height
5872 5870 5869 5868 5866 5865 5863 5862 5862 5862 5863 5863 5864 5864 5864 5864 5864 5865 5865 5866 5866 5866 5867 5867 5867 5868 5869 5870 5872 5873 5875 5877 5878 5879 5880 5881 5882 5882 5883 5884 5885 5885 5885
5872 5870 5869 5868 5866 5865 5863 5861 5860 5861 5863 5863 5864 5864 5863 5863 5863 5864 5865 5865 5866 5866 5866 5866 5866 5867 5868 5870 5871 5873 5874 5876 5877 5878 5880 5880 5882 5882 5883 5884 5884 5885 5885
5873 5871 5870 5869 5867 5865 5863 5861 5860 5861 5862 5864 5864 5864 5863 5863 5864 5864 5865 5865 5866 5866 5866 5866 5865 5865 5867 5869 5871 5872 5874 5876 5877 5879 5880 5880 5881 5882 5883 5883 5884 5885 5885
5874 5872 5871 5870 5868 5866 5864 5862 5862 5862 5863 5865 5865 5864 5864 5864 5865 5865 5865 5865 5865 5865 5865 5865 5864 5864 5866 5869 5871 5872 5875 5876 5878 5879 5880 5880 5881 5882 5882 5883 5884 5884 5885
5875 5873 5872 5871 5870 5868 5866 5865 5865 5865 5865 5866 5866 5866 5866 5865 5865 5865 5865 5865 5865 5865 5865 5865 5864 5865 5866 5869 5871 5873 5875 5877 5878 5879 5880 5881 5882 5882 5883 5883 5883 5884 5884
5876 5875 5873 5872 5871 5870 5869 5868 5868 5868 5868 5867 5867 5867 5867 5866 5866 5865 5865 5865 5865 5865 5865 5865 5865 5866 5868 5870 5871 5873 5875 5876 5878 5879 5880 5881 5882 5882 5882 5883 5883 5884 5884
5877 5875 5874 5874 5873 5872 5871 5870 5870 5870 5869 5869 5869 5868 5868 5867 5866 5865 5865 5865 5864 5864 5865 5866 5867 5868 5869 5871 5872 5873 5875 5876 5878 5879 5881 5881 5882 5882 5882 5882 5883 5883 5883
5877 5876 5875 5875 5874 5874 5873 5872 5871 5871 5871 5871 5871 5870 5868 5866 5863 5863 5864 5864 5863 5863 5865 5866 5867 5868 5869 5870 5872 5873 5875 5877 5878 5879 5881 5881 5881 5882 5882 5882 5883 5883 5883
5878 5878 5877 5877 5876 5876 5875 5874 5873 5873 5873 5873 5872 5871 5869 5865 5862 5861 5863 5863 5863 5863 5864 5866 5868 5868 5869 5870 5872 5874 5875 5876 5878 5879 5881 5881 5882 5882 5882 5882 5882 5882 5883
5880 5879 5878 5878 5878 5877 5877 5876 5875 5875 5875 5874 5874 5872 5870 5867 5864 5863 5864 5864 5863 5862 5863 5866 5868 5869 5870 5871 5872 5874 5875 5876 5878 5879 5880 5881 5881 5882 5882 5882 5882 5882 5883
5882 5881 5880 5879 5879 5879 5878 5878 5877 5877 5877 5876 5875 5874 5873 5871 5869 5867 5866 5865 5863 5862 5864 5867 5869 5871 5871 5871 5872 5874 5875 5876 5878 5879 5880 5880 5881 5881 5881 5882 5882 5882 5882
5884 5883 5882 5881 5881 5880 5880 5880 5879 5879 5878 5878 5877 5876 5875 5874 5872 5871 5869 5868 5865 5865 5867 5869 5871 5872 5872 5871 5872 5873 5875 5877 5878 5879 5880 5880 5880 5881 5881 5882 5882 5882 5882
5886 5885 5884 5883 5882 5882 5881 5881 5881 5881 5880 5879 5878 5878 5877 5876 5875 5873 5873 5872 5870 5870 5871 5872 5873 5873 5873 5873 5873 5874 5876 5877 5879 5879 5879 5880 5880 5881 5881 5881 5881 5881 5881
5888 5887 5886 5885 5884 5883 5883 5883 5882 5882 5881 5881 5880 5879 5878 5877 5876 5875 5875 5874 5874 5873 5874 5874 5874 5874 5874 5874 5875 5875 5877 5878 5879 5879 5879 5880 5880 5881 5881 5881 5881 5881 5881
5890 5889 5888 5887 5886 5885 5885 5885 5884 5884 5883 5882 5882 5881 5880 5879 5878 5877 5876 5876 5875 5875 5875 5875 5875 5875 5875 5876 5876 5877 5878 5878 5879 5879 5880 5880 5880 5881 5881 5881 5881 5880 5880
5892 5891 5890 5889 5888 5887 5887 5886 5886 5885 5884 5883 5883 5882 5881 5880 5879 5878 5877 5877 5877 5877 5876 5876 5876 5876 5876 5877 5877 5877 5878 5879 5879 5879 5880 5880 5880 5880 5880 5880 5880 5880 5879
5893 5892 5891 5890 5889 5889 5888 5887 5887 5886 5885 5884 5884 5883 5882 5881 5880 5880 5879 5878 5878 5878 5877 5877 5877 5877 5877 5877 5878 5878 5879 5879 5879 5880 5880 5880 5879 5879 5879 5879 5879 5879 5878
5895 5894 5893 5892 5891 5890 5889 5888 5887 5887 5886 5885 5885 5884 5883 5882 5881 5881 5880 5880 5879 5879 5878 5878 5878 5878 5878 5878 5878 5879 5879 5879 5880 5880 5879 5880 5879 5879 5878 5878 5878 5877 5877
5896 5895 5894 5893 5892 5891 5890 5889 5888 5887 5887 5886 5885 5885 5884 5883 5882 5882 5881 5881 5880 5879 5879 5879 5879 5879 5879 5879 5879 5879 5879 5879 5879 5879 5879 5879 5878 5878 5878 5877 5877 5876 5875
5897 5896 5895 5894 5893 5892 5891 5890 5889 5888 5887 5886 5886 5885 5884 5884 5883 5883 5882 5881 5881 5880 5880 5880 5879 5879 5879 5879 5879 5879 5879 5879 5879 5879 5879 5878 5877 5877 5876 5876 5875 5875 5874
5898 5897 5895 5894 5893 5892 5891 5890 5889 5888 5887 5887 5886 5885 5884 5884 5883 5883 5882 5882 5881 5880 5880 5880 5879 5879 5879 5879 5879 5879 5878 5878 5878 5878 5877 5877 5877 5876 5875 5874 5874 5873 5872
5898 5897 5896 5894 5893 5892 5891 5890 5889 5889 5888 5887 5886 5885 5884 5884 5883 5882 5882 5882 5881 5880 5880 5879 5879 5879 5878 5878 5878 5878 5878 5878 5877 5877 5876 5876 5875 5874 5873 5872 5872 5871 5871
5898 5897 5895 5894 5893 5892 5891 5890 5889 5888 5888 5887 5886 5885 5884 5883 5882 5882 5881 5881 5880 5880 5879 5879 5878 5878 5877 5877 5877 5876 5875 5876 5875 5875 5874 5874 5873 5872 5871 5871 5870 5869 5868
5898 5896 5895 5894 5893 5892 5891 5890 5889 5888 5887 5887 5886 5885 5883 5882 5882 5881 5880 5879 5879 5878 5878 5877 5877 5876 5876 5875 5875 5874 5874 5873 5873 5872 5872 5871 5871 5870 5869 5868 5867 5866 5865
5897 5896 5894 5893 5892 5891 5890 5889 5888 5887 5886 5886 5885 5884 5883 5882 5881 5880 5879 5878 5877 5876 5876 5875 5875 5874 5873 5873 5872 5872 5871 5871 5870 5870 5870 5869 5868 5868 5867 5866 5865 5863 5861
5896 5895 5894 5893 5891 5890 5890 5888 5887 5886 5885 5884 5883 5883 5882 5881 5879 5878 5877 5876 5875 5874 5874 5873 5872 5871 5871 5870 5869 5869 5868 5868 5867 5867 5866 5866 5865 5865 5864 5863 5862 5860 5858